| time (UTC) | temp F | wind direction | speed MPH | gust MPH | rain 1hr in | rain 24hr in | rain mn in | humidity % | barometer mb |
| 20260905043517 | 75 | 0.0 | 0.0 | 0.00 | 0.00 | 0.00 | 97 | 1015.5 | |
| 20260905042520 | 75 | 0.0 | 0.0 | 0.00 | 0.00 | 0.00 | 97 | 1015.5 | |
| 20260905041523 | 75 | 0.0 | 0.0 | 0.00 | 0.00 | 0.00 | 97 | 1015.6 | |
| 20260905040526 | 75 | 0.0 | 0.0 | 0.00 | 0.00 | 0.00 | 96 | 1015.6 | |
| 20260905035529 | 76 | 0.0 | 0.0 | 0.00 | 0.00 | 0.00 | 96 | 1015.7 | |
| 20260905034532 | 76 | 0.0 | 0.0 | 0.00 | 0.00 | 0.00 | 96 | 1015.7 | |
| 20260905033558 | 76 | 0.0 | 0.0 | 0.00 | 0.00 | 0.00 | 95 | 1015.8 | |
| 20260905032521 | 76 | 0.0 | 0.0 | 0.00 | 0.00 | 0.00 | 94 | 1015.9 | |
| 20260905031524 | 77 | 0.0 | 0.0 | 0.00 | 0.00 | 0.00 | 94 | 1015.9 | |
| 20260905030527 | 77 | 0.0 | 0.0 | 0.00 | 0.00 | 0.00 | 94 | 1016.0 | |
| 20260905025530 | 77 | 0.0 | 0.0 | 0.00 | 0.00 | 0.00 | 92 | 1016.0 | |
| 20260905024515 | 77 | 0.0 | 0.0 | 0.00 | 0.00 | 0.00 | 92 | 1016.1 | |
| 20260905023518 | 78 | 0.0 | 0.0 | 0.00 | 0.00 | 0.00 | 91 | 1016.2 | |
| 20260905022521 | 78 | 0.0 | 0.0 | 0.00 | 0.00 | 0.00 | 90 | 1016.1 | |
| 20260905021525 | 78 | 0.0 | 0.0 | 0.00 | 0.00 | 0.00 | 90 | 1016.1 | |
| 20260905020528 | 79 | 0.0 | 0.0 | 0.00 | 0.00 | 0.00 | 89 | 1016.1 | |
| 20260905015551 | 79 | 0.0 | 0.0 | 0.00 | 0.00 | 0.00 | 88 | 1016.0 | |
| 20260905014516 | 80 | 0.0 | 0.0 | 0.00 | 0.00 | 0.00 | 87 | 1016.0 | |
| 20260905013519 | 80 | 0.0 | 0.0 | 0.00 | 0.00 | 0.00 | 86 | 1015.7 | |
| 20260905012522 | 80 | 0.0 | 0.0 | 0.00 | 0.00 | 0.00 | 86 | 1015.8 | |
| 20260905011519 | 81 | 0.0 | 0.0 | 0.00 | 0.00 | 0.00 | 85 | 1015.7 | |
| 20260905010516 | 81 | 0.0 | 0.0 | 0.00 | 0.00 | 0.00 | 84 | 1015.6 | |
| 20260905005531 | 82 | 0.0 | 0.0 | 0.00 | 0.00 | 0.00 | 82 | 1015.5 | |
| 20260905004517 | 83 | 0.0 | 0.0 | 0.00 | 0.00 | 0.00 | 80 | 1015.4 | |
| 20260905003640 | 84 | 0.0 | 0.0 | 0.00 | 0.00 | 0.00 | 79 | 1015.5 | |
| 20260905002523 | 84 | 0.0 | 0.0 | 0.00 | 0.00 | 0.00 | 75 | 1015.5 | |
| 20260905001526 | 86 | 0.0 | 0.0 | 0.00 | 0.00 | 0.00 | 73 | 1015.5 | |
| 20260905000529 | 87 | 0.0 | 0.0 | 0.00 | 0.00 | 0.00 | 69 | 1015.4 | |
| 20260904235532 | 88 | 0.0 | 0.0 | 0.00 | 0.00 | 0.00 | 66 | 1015.3 | |
| 20260904234517 | 89 | 0.0 | 0.0 | 0.00 | 0.00 | 0.00 | 64 | 1015.4 | |
| 20260904233521 | 90 | 0.0 | 0.0 | 0.00 | 0.00 | 0.00 | 61 | 1015.4 | |
| 20260904232524 | 92 | 0.0 | 0.0 | 0.00 | 0.00 | 0.00 | 57 | 1015.3 | |
| 20260904231527 | 93 | 0.0 | 0.0 | 0.00 | 0.00 | 0.00 | 53 | 1015.2 | |
| 20260904230530 | 94 | 0.0 | 0.0 | 0.00 | 0.00 | 0.00 | 53 | 1015.1 | |
| 20260904225515 | 95 | 0.0 | 0.0 | 0.00 | 0.00 | 0.00 | 49 | 1015.0 | |
| 20260904224518 | 97 | 0.0 | 0.0 | 0.00 | 0.00 | 0.00 | 45 | 1014.8 | |
| 20260904223521 | 99 | 0.0 | 0.0 | 0.00 | 0.00 | 0.00 | 43 | 1014.8 | |
| 20260904222525 | 100 | 0.0 | 0.0 | 0.00 | 0.00 | 0.00 | 42 | 1014.6 | |
| 20260904221528 | 98 | 102 | 1.0 | 4.0 | 0.00 | 0.00 | 0.00 | 43 | 1014.6 |
| 20260904220525 | 96 | 0.0 | 0.0 | 0.00 | 0.00 | 0.00 | 45 | 1014.7 | |
| 20260904215516 | 98 | 0.0 | 0.0 | 0.00 | 0.00 | 0.00 | 43 | 1014.7 | |
| 20260904214519 | 98 | 0.0 | 0.0 | 0.00 | 0.00 | 0.00 | 42 | 1014.8 | |
| 20260904213617 | 97 | 0.0 | 0.0 | 0.00 | 0.00 | 0.00 | 45 | 1014.7 | |
| 20260904212526 | 98 | 0.0 | 0.0 | 0.00 | 0.00 | 0.00 | 41 | 1014.8 | |
| 20260904211529 | 99 | 0.0 | 0.0 | 0.00 | 0.00 | 0.00 | 39 | 1014.8 | |
| 20260904210532 | 98 | 98 | 1.0 | 5.0 | 0.00 | 0.00 | 0.00 | 44 | 1014.9 |
| 20260904205517 | 99 | 0.0 | 0.0 | 0.00 | 0.00 | 0.00 | 41 | 1015.0 | |
| 20260904204641 | 98 | 0.0 | 0.0 | 0.00 | 0.00 | 0.00 | 45 | 1015.1 | |
| 20260904203523 | 99 | 0.0 | 0.0 | 0.00 | 0.00 | 0.00 | 42 | 1015.2 | |
| 20260904202527 | 99 | 142 | 2.0 | 4.0 | 0.00 | 0.00 | 0.00 | 44 | 1015.3 |
| 20260904201530 | 99 | 190 | 1.0 | 5.0 | 0.00 | 0.00 | 0.00 | 41 | 1015.5 |
| 20260904200515 | 98 | 126 | 2.0 | 4.0 | 0.00 | 0.00 | 0.00 | 44 | 1015.6 |
| 20260904195518 | 98 | 0.0 | 0.0 | 0.00 | 0.00 | 0.00 | 48 | 1015.7 | |
| 20260904194521 | 98 | 0.0 | 0.0 | 0.00 | 0.00 | 0.00 | 45 | 1016.0 | |
| 20260904193524 | 98 | 0.0 | 0.0 | 0.00 | 0.00 | 0.00 | 45 | 1016.2 | |
| 20260904192527 | 99 | 80 | 1.0 | 5.0 | 0.00 | 0.00 | 0.00 | 42 | 1016.4 |
| 20260904191531 | 98 | 173 | 1.0 | 5.0 | 0.00 | 0.00 | 0.00 | 43 | 1016.5 |
| 20260904190516 | 95 | 0.0 | 0.0 | 0.00 | 0.00 | 0.00 | 51 | 1016.7 | |
| 20260904185519 | 96 | 0.0 | 0.0 | 0.00 | 0.00 | 0.00 | 48 | 1016.8 | |
| 20260904184542 | 99 | 239 | 1.0 | 3.0 | 0.00 | 0.00 | 0.00 | 44 | 1016.8 |
| 20260904183525 | 99 | 79 | 2.0 | 4.0 | 0.00 | 0.00 | 0.00 | 42 | 1017.1 |
| 20260904182522 | 98 | 103 | 4.0 | 5.0 | 0.00 | 0.00 | 0.00 | 44 | 1017.3 |
| 20260904181519 | 96 | 130 | 1.0 | 4.0 | 0.00 | 0.00 | 0.00 | 50 | 1017.3 |
| 20260904180516 | 97 | 113 | 0.0 | 1.0 | 0.00 | 0.00 | 0.00 | 54 | 1017.4 |
| 20260904175519 | 95 | 119 | 0.0 | 3.0 | 0.00 | 0.00 | 0.00 | 57 | 1017.6 |
| 20260904174523 | 93 | 0.0 | 0.0 | 0.00 | 0.00 | 0.00 | 55 | 1017.6 | |
| 20260904173526 | 94 | 0.0 | 0.0 | 0.00 | 0.00 | 0.00 | 54 | 1017.9 | |
| 20260904172529 | 93 | 0.0 | 0.0 | 0.00 | 0.00 | 0.00 | 57 | 1018.0 | |
| 20260904171552 | 95 | 0.0 | 0.0 | 0.00 | 0.00 | 0.00 | 51 | 1018.2 | |
| 20260904170537 | 94 | 0.0 | 0.0 | 0.00 | 0.00 | 0.00 | 56 | 1018.2 | |
| 20260904165520 | 95 | 0.0 | 0.0 | 0.00 | 0.00 | 0.00 | 49 | 1018.2 | |
| 20260904164543 | 94 | 0.0 | 0.0 | 0.00 | 0.00 | 0.00 | 52 | 1018.4 | |
| 20260904163527 | 94 | 0.0 | 0.0 | 0.00 | 0.00 | 0.00 | 54 | 1018.5 | |
| 20260904162550 | 96 | 0.0 | 0.0 | 0.00 | 0.00 | 0.00 | 51 | 1018.5 | |
| 20260904161535 | 94 | 0.0 | 2.0 | 0.00 | 0.00 | 0.00 | 54 | 1018.6 | |
| 20260904160538 | 95 | 0.0 | 0.0 | 0.00 | 0.00 | 0.00 | 53 | 1018.7 | |
| 20260904155521 | 94 | 0.0 | 0.0 | 0.00 | 0.00 | 0.00 | 56 | 1018.7 | |
| 20260904154544 | 93 | 0.0 | 0.0 | 0.00 | 0.00 | 0.00 | 58 | 1018.7 | |
| 20260904153527 | 92 | 0.0 | 0.0 | 0.00 | 0.00 | 0.00 | 56 | 1018.7 | |
| 20260904152530 | 92 | 0.0 | 0.0 | 0.00 | 0.00 | 0.00 | 55 | 1018.7 | |
| 20260904151516 | 91 | 0.0 | 0.0 | 0.00 | 0.00 | 0.00 | 55 | 1018.6 | |
| 20260904150518 | 90 | 0.0 | 0.0 | 0.00 | 0.00 | 0.00 | 63 | 1018.5 | |
| 20260904145522 | 90 | 0.0 | 0.0 | 0.00 | 0.00 | 0.00 | 63 | 1018.4 | |
| 20260904144519 | 90 | 0.0 | 0.0 | 0.00 | 0.00 | 0.00 | 62 | 1018.3 | |
| 20260904143556 | 89 | 180 | 0.0 | 2.0 | 0.00 | 0.00 | 0.00 | 64 | 1018.2 |
| 20260904142531 | 87 | 0.0 | 0.0 | 0.00 | 0.00 | 0.00 | 72 | 1018.3 | |
| 20260904141516 | 85 | 0.0 | 0.0 | 0.00 | 0.00 | 0.00 | 77 | 1018.3 | |
| 20260904140519 | 84 | 0.0 | 0.0 | 0.00 | 0.00 | 0.00 | 78 | 1018.3 | |
| 20260904135522 | 81 | 0.0 | 0.0 | 0.00 | 0.00 | 0.00 | 87 | 1018.3 | |
| 20260904134525 | 79 | 0.0 | 0.0 | 0.00 | 0.00 | 0.00 | 92 | 1018.4 | |
| 20260904133528 | 78 | 0.0 | 0.0 | 0.00 | 0.00 | 0.00 | 96 | 1018.5 | |
| 20260904132532 | 76 | 0.0 | 0.0 | 0.00 | 0.00 | 0.00 | 98 | 1018.4 | |
| 20260904131517 | 76 | 0.0 | 0.0 | 0.00 | 0.00 | 0.00 | 99 | 1018.4 | |
| 20260904130520 | 74 | 0.0 | 0.0 | 0.00 | 0.00 | 0.00 | 99 | 1018.3 | |
| 20260904125523 | 74 | 0.0 | 0.0 | 0.00 | 0.00 | 0.00 | 99 | 1018.2 | |
| 20260904124546 | 73 | 0.0 | 0.0 | 0.00 | 0.00 | 0.00 | 99 | 1018.2 | |
| 20260904123549 | 72 | 0.0 | 0.0 | 0.00 | 0.00 | 0.00 | 99 | 1017.9 | |
| 20260904122552 | 72 | 0.0 | 0.0 | 0.00 | 0.00 | 0.00 | 99 | 1017.9 | |
| 20260904121517 | 71 | 0.0 | 0.0 | 0.00 | 0.00 | 0.00 | 99 | 1017.8 | |
| 20260904120520 | 71 | 0.0 | 0.0 | 0.00 | 0.00 | 0.00 | 99 | 1017.6 | |
| 20260904115543 | 71 | 0.0 | 0.0 | 0.00 | 0.00 | 0.00 | 99 | 1017.5 | |
| 20260904114527 | 71 | 0.0 | 0.0 | 0.00 | 0.00 | 0.00 | 99 | 1017.5 | |
| 20260904113524 | 71 | 0.0 | 0.0 | 0.00 | 0.00 | 0.00 | 99 | 1017.4 | |
| 20260904112515 | 71 | 0.0 | 0.0 | 0.00 | 0.00 | 0.00 | 99 | 1017.3 | |
| 20260904111518 | 71 | 0.0 | 0.0 | 0.00 | 0.00 | 0.00 | 99 | 1017.2 | |
| 20260904110516 | 71 | 0.0 | 0.0 | 0.00 | 0.00 | 0.00 | 99 | 1017.1 | |
| 20260904105524 | 71 | 0.0 | 0.0 | 0.00 | 0.00 | 0.00 | 99 | 1017.1 | |
| 20260904104547 | 71 | 0.0 | 0.0 | 0.00 | 0.00 | 0.00 | 99 | 1017.1 | |
| 20260904103531 | 71 | 0.0 | 0.0 | 0.00 | 0.00 | 0.00 | 99 | 1016.9 | |
| 20260904102516 | 71 | 0.0 | 0.0 | 0.00 | 0.00 | 0.00 | 99 | 1016.8 | |
| 20260904101539 | 72 | 0.0 | 0.0 | 0.00 | 0.00 | 0.00 | 99 | 1016.7 | |
| 20260904100542 | 71 | 0.0 | 0.0 | 0.00 | 0.00 | 0.00 | 99 | 1016.7 | |
| 20260904095526 | 72 | 0.0 | 0.0 | 0.00 | 0.00 | 0.00 | 99 | 1016.6 | |
| 20260904094549 | 72 | 0.0 | 0.0 | 0.00 | 0.00 | 0.00 | 99 | 1016.6 | |
| 20260904093532 | 72 | 0.0 | 0.0 | 0.00 | 0.00 | 0.00 | 99 | 1016.6 | |
| 20260904092517 | 72 | 0.0 | 0.0 | 0.00 | 0.00 | 0.00 | 99 | 1016.6 | |
| 20260904091540 | 72 | 0.0 | 0.0 | 0.00 | 0.00 | 0.00 | 99 | 1016.7 | |
| 20260904090523 | 72 | 0.0 | 0.0 | 0.00 | 0.00 | 0.00 | 99 | 1016.7 | |
| 20260904085526 | 72 | 0.0 | 0.0 | 0.00 | 0.00 | 0.00 | 99 | 1016.6 | |
| 20260904084530 | 72 | 0.0 | 0.0 | 0.00 | 0.00 | 0.00 | 99 | 1016.6 | |
| 20260904083532 | 73 | 0.0 | 0.0 | 0.00 | 0.00 | 0.00 | 99 | 1016.6 | |
| 20260904082518 | 73 | 0.0 | 0.0 | 0.00 | 0.00 | 0.00 | 99 | 1016.6 | |
| 20260904081521 | 73 | 0.0 | 0.0 | 0.00 | 0.00 | 0.00 | 99 | 1016.7 | |
| 20260904080524 | 73 | 0.0 | 0.0 | 0.00 | 0.00 | 0.00 | 99 | 1016.7 | |
| 20260904075521 | 73 | 0.0 | 0.0 | 0.00 | 0.00 | 0.00 | 99 | 1016.7 | |
| 20260904074538 | 73 | 0.0 | 0.0 | 0.00 | 0.00 | 0.00 | 99 | 1016.7 | |
| 20260904073516 | 73 | 0.0 | 0.0 | 0.00 | 0.00 | 0.00 | 99 | 1016.8 | |
| 20260904072539 | 73 | 0.0 | 0.0 | 0.00 | 0.00 | 0.00 | 99 | 1016.7 | |
| 20260904071522 | 73 | 0.0 | 0.0 | 0.00 | 0.00 | 0.00 | 99 | 1016.7 | |
| 20260904070525 | 73 | 0.0 | 0.0 | 0.00 | 0.00 | 0.00 | 99 | 1016.7 | |
| 20260904065549 | 73 | 0.0 | 0.0 | 0.00 | 0.00 | 0.00 | 99 | 1016.7 | |
| 20260904064532 | 73 | 0.0 | 0.0 | 0.00 | 0.00 | 0.00 | 99 | 1016.9 | |
| 20260904063517 | 73 | 0.0 | 0.0 | 0.00 | 0.00 | 0.00 | 99 | 1016.8 | |
| 20260904062520 | 73 | 0.0 | 0.0 | 0.00 | 0.00 | 0.00 | 99 | 1016.8 | |
| 20260904061523 | 74 | 0.0 | 0.0 | 0.00 | 0.00 | 0.00 | 99 | 1016.8 | |
| 20260904060526 | 74 | 0.0 | 0.0 | 0.00 | 0.00 | 0.00 | 99 | 1016.8 | |
| 20260904055529 | 74 | 0.0 | 0.0 | 0.00 | 0.00 | 0.00 | 99 | 1016.8 | |
| 20260904054533 | 74 | 0.0 | 0.0 | 0.00 | 0.00 | 0.00 | 99 | 1016.9 | |
| 20260904053518 | 74 | 0.0 | 0.0 | 0.00 | 0.00 | 0.00 | 99 | 1016.9 | |
| 20260904052521 | 74 | 0.0 | 0.0 | 0.00 | 0.00 | 0.00 | 99 | 1016.9 | |
| 20260904051524 | 74 | 0.0 | 0.0 | 0.00 | 0.00 | 0.00 | 98 | 1016.9 | |
| 20260904050527 | 74 | 0.0 | 0.0 | 0.00 | 0.00 | 0.00 | 98 | 1016.8 | |
| 20260904045530 | 74 | 0.0 | 0.0 | 0.00 | 0.00 | 0.00 | 98 | 1016.8 | |
| 20260904044515 | 74 | 0.0 | 0.0 | 0.00 | 0.00 | 0.00 | 98 | 1016.9 |